This is the latest recevied weather packets stored in our database for station/object WP3OF-2. If no packets are shown the sender has not sent any weather packets the latest 10 day(s).
| Time | Temp. | Humidity | Pressure | Rain* | Wind** | Luminosity | Snow |
|---|---|---|---|---|---|---|---|
| 1777813924 | 22.78° C | 83% | 1027.9 hPa | 0 mm | - | 708 W/m² | - |
| 1777813621 | 21.67° C | 84% | 1027.9 hPa | 0 mm | - | 702 W/m² | - |
| 1777813319 | 21.67° C | 89% | 1027.9 hPa | 0 mm | - | 672 W/m² | - |
| 1777813016 | 22.22° C | 83% | 1027.9 hPa | 0 mm | - | 637 W/m² | - |
| 1777812714 | 21.67° C | 85% | 1027.9 hPa | 0 mm | - | 618 W/m² | - |
| 1777812410 | 21.11° C | 83% | 1027.9 hPa | 0 mm | - | 582 W/m² | - |
| 1777812108 | 21.11° C | 83% | 1027.9 hPa | 0 mm | - | 510 W/m² | - |
| 1777811806 | 21.67° C | 82% | 1027.4 hPa | 0 mm | - | 454 W/m² | - |
| 1777811503 | 21.67° C | 84% | 1027.4 hPa | 0 mm | - | 428 W/m² | - |
| 1777811199 | 21.11° C | 86% | 1027.4 hPa | 0 mm | - | 383 W/m² | - |
| 1777810897 | 21.11° C | 86% | 1027.4 hPa | 0 mm | - | 356 W/m² | - |
| 1777810593 | 21.11° C | 86% | 1027.4 hPa | 0 mm | - | 343 W/m² | - |
| 1777810290 | 21.11° C | 86% | 1027.4 hPa | 0 mm | - | 324 W/m² | - |
| 1777809985 | 21.11° C | 87% | 1027.4 hPa | 0 mm | - | 306 W/m² | - |
| 1777809684 | 20.56° C | 85% | 1027.4 hPa | 0 mm | - | 288 W/m² | - |
| 1777809381 | 20.56° C | 86% | 1027.1 hPa | 0 mm | - | 270 W/m² | - |
| 1777809079 | 20.56° C | 87% | 1027.1 hPa | 0 mm | - | 239 W/m² | - |
| 1777808776 | 20° C | 88% | 1027.1 hPa | 0 mm | - | 226 W/m² | - |
| 1777808473 | 20° C | 88% | 1027.1 hPa | 0 mm | - | 207 W/m² | - |
| 1777808171 | 20° C | 91% | 1026.7 hPa | 0 mm | - | 187 W/m² | - |
| 1777807868 | 20° C | 91% | 1026.7 hPa | 0 mm | - | 170 W/m² | - |
| 1777807561 | 20° C | 91% | 1026.7 hPa | 0 mm | - | 150 W/m² | - |
| 1777807257 | 20° C | 91% | 1026.7 hPa | 0 mm | - | 132 W/m² | - |
| 1777806953 | 20° C | 91% | 1026.7 hPa | 0 mm | - | 66 W/m² | - |
| 1777806650 | 20° C | 90% | 1026.3 hPa | 0 mm | - | 50 W/m² | - |
* Rain latest hour (hover to see other rain measurements)
** Current wind speed in m/s (hover to see current wind gust speed)